10.05.2024;20:00;24
10.05.2024;19:00;24
10.05.2024;18:00;25
10.05.2024;17:00;20
10.05.2024;16:00;20
10.05.2024;15:00;20
10.05.2024;14:00;20
10.05.2024;13:00;20
10.05.2024;12:00;28
10.05.2024;11:00;34
10.05.2024;10:00;35
10.05.2024;09:00;42
10.05.2024;08:00;37
10.05.2024;07:00;34
10.05.2024;06:00;25
10.05.2024;05:00;31
10.05.2024;04:00;31
10.05.2024;03:00;29
10.05.2024;02:00;29
10.05.2024;01:00;37
10.05.2024;00:00;54
09.05.2024;23:00;35
09.05.2024;22:00;30
09.05.2024;21:00;24
09.05.2024;20:00;24
09.05.2024;19:00;16
09.05.2024;18:00;16
09.05.2024;17:00;16
09.05.2024;16:00;13
09.05.2024;15:00;12
09.05.2024;14:00;12
09.05.2024;13:00;12
09.05.2024;12:00;12
09.05.2024;11:00;11
09.05.2024;10:00;11
09.05.2024;09:00;13
09.05.2024;08:00;17
09.05.2024;07:00;17
09.05.2024;06:00;15
09.05.2024;05:00;16
09.05.2024;04:00;16
09.05.2024;03:00;16
09.05.2024;02:00;15
09.05.2024;01:00;18
09.05.2024;00:00;26
08.05.2024;23:00;26
08.05.2024;22:00;26
08.05.2024;21:00;30
